User: anonymous   Login
Location: Unspecified
(0.0000°N, 0.0000°E)
Time: 04:04:39
(UTC+00:00)
Language:

OPAL - Orbit

View from above orbital plane
View from above orbital plane
View from above satellite
View from above satellite

Ground track
Ground track

The orbit data is extracted from the following two-line orbital elements,

1 26063U 00004C   18022.73445282 -.00000019  00000-0  13422-4 0  9996
2 26063 100.2111  72.0974 0036959  50.6676 309.7770 14.36687661942901
Epoch (UTC): 22 January 2018 17:37:36
Eccentricity: 0.0036959
inclination: 100.2111°
perigee height: 743 km
apogee height: 796 km
right ascension of ascending node: 72.0974°
argument of perigee: 50.6676°
revolutions per day: 14.36687661
mean anomaly at epoch: 309.7770°
orbit number at epoch: 94290

The dashed part of the orbit path shows where the satellite is in the earth's shadow,  

DLR